Regional Weather Roundup
Issued by NWS

Home | Current Version | Previous Version | Text Only | Print | Product List | Glossary On
Versions: 1 2 3 4 5 6 7 8 9 10 11 12 13 14 15 16 17 18 19 20 21 22 23 24 25 26 27 28
000
ASUS45 KSLC 272110
RWRUT

UTAH REGIONAL WEATHER ROUNDUP
NATIONAL WEATHER SERVICE SALT LAKE CITY UT
300 PM MDT WED JUL 27 2016

UTZ001>011-023>025-272200-

NORTHERN UTAH

CITY           SKY/WX    TMP DP  RH WIND       PRES   REMARKS
BRIGHAM CITY     N/A     96  21   7 SW3       30.11F
HILL AFB       SUNNY     94  31  10 N9        30.17F
LOGAN          SUNNY     93  31  11 VRB5      30.13F
OGDEN          SUNNY     96  31  10 W9        30.13F HX  90
PROVO AIRPORT  SUNNY     91  45  19 W7        30.13F
SALT LAKE CITY MOSUNNY   99  30   9 NW7       30.10F HX  93
VERNAL         SUNNY     93  36  13 SE8       30.15F
WENDOVER       SUNNY     97  36  11 SE13      30.11F HX  92
HEBER CITY     SUNNY     95  25   8 CALM      30.19S

$$

UTZ012>022-026-027-272200-

SOUTHERN/CENTRAL UTAH

CITY           SKY/WX    TMP DP  RH WIND       PRES   REMARKS
BLANDING       MOSUNNY   91  42  17 SW7       30.26F
BRYCE CANYON   MOSUNNY   87  26  11 MISG      30.37F
CEDAR CITY     SUNNY    101  22   6 NW13      30.18F HX  94
DELTA          SUNNY     97  23   7 CALM      30.13S HX  90
MILFORD        SUNNY    102  28   7 N10       30.13F HX  95
MOAB/CYNLANDS  SUNNY    100  34  10 NW13      30.07F HX  94
PRICE          SUNNY     97  31   9 W9        30.19F HX  91
ST GEORGE      CLEAR    108  45  12 SW7       29.94F HX 103

$$

REGIONAL REPORTS     COLORADO/ARIZONA

CITY           SKY/WX    TMP DP  RH WIND       PRES   REMARKS
CRAIG, CO      SUNNY     93  19   7 W12G21    30.23F
GRAND JUNCTION SUNNY     98  38  12 W9        30.10F HX  93
RIFLE          SUNNY     97  33  10 W8G17     30.16F HX  91
MONTROSE       SUNNY     93  31  11 NW7       30.21F
CORTEZ         SUNNY     96  38  13 MISG      30.19F HX  91
PAGE, AZ       SUNNY    102  35  10 VRB5      30.06F HX  96
GRAND CANYON   MOSUNNY   95  27   9 N9G16     30.29F
KINGMAN        MOSUNNY  101  48  16 VRB6      29.99F HX  97
FLAGSTAFF      MOSUNNY   88  37  16 E10       30.31F

$$

REGIONAL REPORTS    NEVADA/IDAHO/WYOMING

CITY           SKY/WX    TMP DP  RH WIND       PRES   REMARKS
LAS VEGAS, NV  MOSUNNY  112  39   8 N7        29.83F HX 105
ELY            SUNNY     96  21   6 S10       30.24F
ELKO           SUNNY     99  15   5 SW8       30.15F HX  91
POCATELLO, ID  SUNNY     93  37  14 W8        30.14F
BURLEY         SUNNY     92  47  21 NE6       30.09F
EVANSTON, WY   SUNNY     88  22   9 W20G30    30.34S
ROCK SPRINGS   SUNNY     89  15   6 NW14G21   30.28F
KEMMERER         N/A     86  19   8 W16G28    30.33F

$$




USA.gov is the U.S. government's official web portal to all federal, state and local government web resources and services.